Retour au catalogue

NOAA 16 DEB

ActifPO
NORAD 41133·DEBRIS·🇺🇸 United States

Lancé Sep 21, 2000 depuis Vandenberg Space Force Base

Loading…

Prochains Passages (prochaines 24 heures)

TLE

FraisSource: Space-Track

Époque: Sep 14, 2026, 11:29 UTC

1 41133U 00055BQ  26257.47871882  .00014585  00000-0  23801-2 0  9998
2 41133  98.9244  83.5792 0012129  29.4443 330.7442 14.70990630559590

Suivez NOAA 16 DEB en temps réel avec AllMySat

Download on the App Store